Location: ??
(35.5052°N, 139.7262°E)
Time: 09:27:19
(UTC+00:00)

Cosmos 1633 - Visible Passes

Search period start: 28 October 2021 00:00
Search period end: 07 November 2021 00:00
Orbit: 460 x 474 km, 82.5° (Epoch: 27 October)

Date Brightness Start Highest point End Pass type
(mag) Time Alt. Az. Time Alt. Az. Time Alt. Az.
03 Nov 4.1 09:19:33 10° N 09:21:01 23° N 09:21:01 23° N visible
04 Nov 3.3 08:49:43 10° NNE 08:52:55 30° E 08:54:30 21° ESE visible
04 Nov 5.9 10:26:03 10° WNW 10:27:14 11° W 10:28:26 10° WSW visible
05 Nov 4.1 08:20:25 10° NE 08:22:38 15° ENE 08:24:50 10° ESE visible
05 Nov 5.0 09:54:27 10° NW 09:57:16 22° W 10:00:05 10° SW visible
06 Nov 3.6 09:23:48 10° NNW 09:27:14 46° W 09:30:38 10° SSW visible
